Weather Roundup
Issued by NWS

Home | Current Version | Previous Version | Graphics & Text | Print | Product List | Glossary Off
Versions: 1 2 3 4 5 6 7 8 9 10 11 12 13 14 15 16 17 18 19 20 21 22 23 24 25 26 27 28 29 30 31 32 33 34 35 36 37 38 39 40 41 42 43 44 45 46 47 48 49 50

000
NZUS93 KARX 270610
HRRWXR

CURRENT HOURLY OBSERVATIONS ACROSS
MUCH OF THE UPPER MISSISSIPPI VALLEY
NATIONAL WEATHER SERVICE LA CROSSE WI
100 AM CDT MON APR 27 2015


...SOUTHEAST MINNESOTA...


CITY           SKY/WX    TMP DP  RH WIND       PRES   REMARKS
ROCHESTER      CLEAR     44  26  49 NE10      30.13S
ROCHESTER/MAYO FAIR      47  27  45 N3        30.14R
WINONA         CLEAR     48  30  49 CALM      30.14R
AUSTIN         CLEAR     45  28  53 NE3       30.12S
ALBERT LEA     CLEAR     39  30  70 NE5       30.14R
DODGE CENTER   PTCLDY    46  27  46 NE8       30.13S
PRESTON        CLEAR     43  25  49 N5        30.13R
OWATONNA       CLEAR     45  23  42 NE6       30.14S
FARIBAULT      CLEAR     45  27  49 N5        30.15S
$$

...ELSEWHERE IN MINNESOTA...


CITY           SKY/WX    TMP DP  RH WIND       PRES   REMARKS
MINNEAPOLIS    CLEAR     50  24  36 E5        30.17R
INTNL FALLS    CLEAR     29  22  75 CALM      30.19R
DULUTH         CLEAR     35  23  61 CALM      30.17S
RED WING       CLEAR     46  23  39 CALM      30.15R
REDWOOD FALLS  CLEAR     49  21  33 E5        30.15R
MANKATO        CLEAR     48  27  43 NE9       30.15S
WORTHINGTON    CLEAR     41  21  45 CALM      30.17R
FAIRMONT       CLEAR     43  23  45 CALM      30.14R
$$

...SOUTHWEST WISCONSIN...


CITY           SKY/WX    TMP DP  RH WIND       PRES   REMARKS
LA CROSSE      CLEAR     47  28  47 NW6       30.12R
PRAIRIE DU CHI CLEAR     41  32  69 W3        30.09R
BOSCOBEL       CLEAR     35  31  85 CALM      30.09R
LONE ROCK      CLEAR     44  30  57 E12       30.11R
PLATTEVILLE    CLEAR     40  29  65 N7        30.07R
FORT MC COY    CLEAR     45  28  52 N6        30.12R
CAMP DOUGLAS   CLEAR     40  28  62 NE1       30.11R
VIROQUA        FAIR      42  29  60 N8        30.10R
WIS DELLS      CLEAR     40  29  64 E6        30.11R
$$

...ELSEWHERE IN WISCONSIN...


CITY           SKY/WX    TMP DP  RH WIND       PRES   REMARKS
MILWAUKEE      CLEAR     41  30  65 N8        30.09R
MADISON        CLEAR     40  28  62 E6        30.11R
GREEN BAY      CLEAR     40  33  76 NW6       30.10S
EAU CLAIRE     CLEAR     42  24  49 N8        30.14R
BLACK RVR FLS  FAIR      46  26  45 N6        30.12S
MEDFORD        CLEAR     38  28  69 NE7       30.13R WCI  32
WAUSAU         CLEAR     42  30  62 CALM      30.11R
WIS RAPIDS     CLEAR     42  27  55 NE3       30.13R
MARSHFIELD     CLEAR     42  28  57 NE6       30.12R
RICE LAKE      CLEAR     33  29  85 CALM      30.18R
$$

...NORTHEAST IOWA...


CITY           SKY/WX    TMP DP  RH WIND       PRES   REMARKS
DECORAH        CLEAR     46  27  46 N6        30.10R
MASON CITY     CLEAR     40  29  64 CALM      30.14R
CHARLES CITY   CLEAR     41  30  65 N10       30.11S
OELWEIN        CLEAR     41  30  65 NW5       30.10R
$$

...ELSEWHERE IN IOWA...


CITY           SKY/WX    TMP DP  RH WIND       PRES   REMARKS
DES MOINES     CLEAR     46  29  51 CALM      30.12R
IOWA CITY      CLEAR     39  33  79 CALM      30.10R
FORT DODGE     CLEAR     41  28  60 CALM      30.14S
$$

...NORTHERN ILLINOIS...


CITY           SKY/WX    TMP DP  RH WIND       PRES   REMARKS
CHICAGO-OHARE  CLEAR     42  30  62 N12       30.05S
CHICAGO-MIDWAY CLEAR     46  31  55 N14       30.05R
MOLINE         CLEAR     38  34  85 CALM      30.06S
ROCKFORD       CLEAR     41  25  53 NE3       30.11R
PEORIA         CLEAR     42  35  76 CALM      30.07R
$$

NOTE: "FAIR" INDICATES FEW OR NO CLOUDS BELOW 12,000 FEET WITH NO
SIGNIFICANT WEATHER AND/OR OBSTRUCTIONS TO VISIBILITY. WIND
SPEEDS ARE IN MILES-PER-HOUR.



USA.gov is the U.S. government's official web portal to all federal, state and local government web resources and services.